[[{"header":{"parameterUnit":"m.s-1","parameterCategory":1,"la1":30.2991,"la2":30.254,"lo1":-89.0895,"lo2":-89.0444,"dy":0.0017,"dx":0.0017,"nx":28,"ny":28,"refTime":"2025-04-10T21:00:00:Z","depth":0,"parameterNumber":2,"parameterNumberName":"U-component_of_WINDS"},"data":[0,0,0,0,0,0,0,0,0,0,0,0,0,0,0,0,0,0,0,0,0,0,0,0,0,0,0,0,0,0,0,0,0,0,0,0,0,0,0,0,0,0,0,0,0,0,0,0,0,0,0,0,0,0,0,0,0,0,-1.06,-1.06,0,-1.0614,-1.0614,-1.0614,-1.0578,-1.0577,-1.0576,-1.0575,-1.059,-1.0592,-1.0593,0,0,0,0,0,0,0,0,0,0,0,0,0,-1.0541,-1.0543,-1.06,-1.06,-1.06,-1.0614,-1.0614,-1.0614,-1.0578,-1.0577,-1.0575,-1.0574,-1.059,-1.0592,-1.0593,0,0,0,0,0,0,0,0,0,0,0,0,0,-1.0562,-1.0543,-1.0599,-1.0584,-1.0582,-1.0614,-1.0614,-1.0614,-1.0578,-1.0577,-1.0575,-1.0573,-1.0589,-1.0591,-1.0594,-1.0642,0,0,-1.0601,-1.0601,0,0,0,0,0,0,0,0,-1.0561,-1.0565,-1.0586,-1.0585,-1.0583,-1.0592,-1.0599,-1.0624,-1.0579,-1.058,-1.0575,-1.0573,-1.0593,-1.0594,-1.0601,-1.0643,-1.0643,-1.0601,-1.0602,-1.0603,-1.0604,0,0,0,0,0,0,0,-1.056,-1.0564,-1.0605,-1.0586,-1.0585,-1.0576,-1.0577,-1.0604,-1.0596,-1.058,-1.0577,-1.0579,-1.0592,-1.0599,-1.0601,-1.0643,-1.0601,-1.0603,-1.0604,-1.0605,-1.0726,-1.0727,0,0,0,0,0,0,-1.056,-1.0563,-1.0605,-1.0606,-1.0568,-1.0578,-1.0579,-1.0591,-1.0595,-1.0594,-1.0581,-1.0577,-1.0596,-1.0598,-1.0601,-1.0659,-1.0603,-1.0605,-1.0606,-1.0724,-1.0726,-1.0728,0,0,0,0,0,0,-1.0559,-1.0564,-1.0604,-1.0583,-1.0588,-1.0581,-1.0595,-1.0592,-1.06,-1.0596,-1.0594,-1.059,-1.0595,-1.0598,-1.0632,-1.0659,-1.0606,-1.0608,-1.0721,-1.0724,-1.0727,-1.0773,0,0,0,0,0,0,-1.0558,-1.0564,-1.0582,-1.0584,-1.0589,-1.0635,-1.0596,-1.0594,-1.0603,-1.0599,-1.0604,-1.0603,-1.0594,-1.0629,-1.0634,-1.0661,-1.061,-1.0719,-1.0723,-1.0726,-1.0769,-1.0777,-1.0784,0,0,0,0,0,-1.0556,-1.0595,-1.0583,-1.0589,-1.0612,-1.0636,-1.0639,-1.0627,-1.0606,-1.0624,-1.0622,-1.0603,-1.0654,-1.0633,-1.0638,-1.0666,-1.0717,-1.0722,-1.0726,-1.0766,-1.0775,-1.0784,0,0,0,0,0,0,-1.0597,-1.0595,-1.0582,-1.0623,-1.063,-1.063,-1.0653,-1.0637,-1.0651,-1.0647,-1.0631,-1.0633,-1.0669,-1.0671,-1.0646,-1.0713,-1.0682,-1.0688,-1.0711,-1.072,-1.0727,-1.0727,-1.0612,0,0,0,0,0,-1.0611,-1.0631,-1.0628,-1.0664,-1.0668,-1.066,-1.067,-1.066,-1.0667,-1.067,-1.067,-1.0677,-1.0695,-1.0707,-1.0723,-1.0768,-1.0769,-1.079,-1.0798,-1.0804,-1.0809,-1.0833,-1.0843,-1.0742,-1.0742,-1.0742,0,0,-1.064,-1.0641,-1.0654,-1.0672,-1.0677,-1.0698,-1.0663,-1.0687,-1.0702,-1.0673,-1.0706,-1.0706,-1.0713,-1.0753,-1.077,-1.0755,-1.0837,-1.0809,-1.0814,-1.0816,-1.0839,-1.0848,-1.0857,-1.0745,-1.0744,-1.0744,0,0,-1.0703,-1.0706,-1.0737,-1.0741,-1.0748,-1.0742,-1.075,-1.0752,-1.0751,-1.0782,-1.0761,-1.078,-1.0811,-1.0817,-1.0824,-1.0889,-1.0873,-1.0895,-1.0934,-1.0958,-1.0966,-1.0973,-1.0997,-1.1006,-1.09,-1.09,-1.09,0,-1.0739,-1.077,-1.0755,-1.078,-1.0789,-1.0763,-1.0794,-1.0799,-1.0811,-1.0818,-1.08,-1.0839,-1.0842,-1.0883,-1.0899,-1.0905,-1.0914,-1.0895,-1.0966,-1.0973,-1.0979,-1.1002,-1.1011,-1.0903,-1.0903,-1.0902,-1.0902,0,-1.0813,-1.0835,-1.0859,-1.0871,-1.0882,-1.091,-1.09,-1.0913,-1.0901,-1.0898,-1.093,-1.0933,-1.0949,-1.0958,-1.0947,-1.0998,-1.0988,-1.0968,-1.0938,-1.0992,-1.1013,-1.1022,-1.0907,-1.0906,-1.0905,-1.0904,0,0,-1.0905,-1.0907,-1.0916,-1.0921,-1.0926,-1.0943,-1.097,-1.0986,-1.0998,-1.1006,-1.1029,-1.1055,-1.1037,-1.1045,-1.1035,-1.1056,-1.1108,-1.1034,-1.1034,-1.1048,-1.1165,-1.1181,-1.1191,-1.1097,-1.1098,-1.11,-1.1165,0,-1.0968,-1.1015,-1.1002,-1.1048,-1.1069,-1.1044,-1.1067,-1.1073,-1.107,-1.1086,-1.1083,-1.1102,-1.1076,-1.1081,-1.11,-1.1098,-1.1132,-1.1093,-1.1119,-1.112,-1.1119,-1.1202,-1.1219,-1.128,-1.1173,-1.1174,-1.1175,0,-1.1049,-1.1061,-1.111,-1.1111,-1.1119,-1.1141,-1.1154,-1.117,-1.1176,-1.1172,-1.1181,-1.1166,-1.1193,-1.1161,-1.1198,-1.1172,-1.1182,-1.1182,-1.1184,-1.1187,-1.1152,-1.1209,-1.13,-1.1309,-1.1188,-1.1187,-1.1186,0,-1.1113,-1.114,-1.1173,-1.1178,-1.118,-1.1196,-1.1198,-1.1202,-1.1212,-1.1224,-1.123,-1.1245,-1.1253,-1.1265,-1.1254,-1.1232,-1.1294,-1.1261,-1.1292,-1.1292,-1.1307,-1.1307,-1.1402,-1.1311,-1.1311,-1.1311,-1.1311,0,-1.1186,-1.1217,-1.1202,-1.1222,-1.1256,-1.124,-1.1274,-1.1273,-1.1277,-1.1297,-1.1276,-1.1295,-1.1279,-1.1297,-1.1289,-1.1321,-1.1325,-1.1323,-1.1321,-1.1326,-1.1327,-1.1333,-1.1329,-1.1313,-1.1313,-1.1312,-1.1312,0,-1.1263,-1.1254,-1.1288,-1.1287,-1.1288,-1.1313,-1.1313,-1.1331,-1.1326,-1.1352,-1.1357,-1.1349,-1.1368,-1.1359,-1.1379,-1.1374,-1.1416,-1.1407,-1.1414,-1.1413,-1.1445,-1.1443,-1.1549,-1.1563,-1.1462,-1.1463,-1.1464,0,-1.1312,-1.1335,-1.1336,-1.1348,-1.1351,-1.137,-1.138,-1.1366,-1.1377,-1.1385,-1.1404,-1.1421,-1.1435,-1.1468,-1.1464,-1.148,-1.1472,-1.1509,-1.1475,-1.1479,-1.1474,-1.1474,-1.1476,-1.1516,-1.1517,-1.1518,-1.1519,0,-1.1399,-1.1393,-1.1408,-1.1422,-1.1435,-1.1445,-1.1453,-1.1464,-1.145,-1.1464,-1.1484,-1.1494,-1.1515,-1.1533,-1.1547,-1.1549,-1.1532,-1.1529,-1.1538,-1.1544,-1.1547,-1.1547,-1.1435,-1.1527,-1.1527,-1.1526,-1.1525,-1.1525,-1.1464,-1.1483,-1.1488,-1.1506,-1.151,-1.1518,-1.1536,-1.1533,-1.1549,-1.1565,-1.1555,-1.1579,-1.1584,-1.16,-1.1604,-1.1623,-1.1608,-1.162,-1.1623,-1.1627,-1.1632,-1.1543,-1.1625,-1.1624,-1.1624,-1.1624,-1.1624,0,-1.1551,-1.1552,-1.1569,-1.1581,-1.1595,-1.1577,-1.1585,-1.1598,-1.1619,-1.1625,-1.1639,-1.1662,-1.1679,-1.1676,-1.1692,-1.1708,-1.17,-1.1713,-1.1712,-1.1713,-1.1643,-1.1635,-1.1718,-1.1718,-1.1718,-1.1718,-1.1718,-1.1718,-1.1598,-1.1631,-1.1625,-1.166,-1.166,-1.1683,-1.169,-1.1697,-1.1702,-1.1728,-1.1743,-1.174,-1.1743,-1.1759,-1.1774,-1.1773,-1.178,-1.1796,-1.1792,-1.1727,-1.1718,-1.1709,-1.1701,-1.1797,-1.1797,-1.186,-1.1861,-1.1861]},{"header":{"parameterUnit":"m.s-1","parameterCategory":1,"la1":30.2991,"la2":30.254,"lo1":-89.0895,"lo2":-89.0444,"dy":0.0017,"dx":0.0017,"nx":28,"ny":28,"refTime":"2025-04-10T21:00:00:Z","depth":0,"parameterNumber":3,"parameterNumberName":"V-component_of_WINDS"},"data":[0,0,0,0,0,0,0,0,0,0,0,0,0,0,0,0,0,0,0,0,0,0,0,0,0,0,0,0,0,0,0,0,0,0,0,0,0,0,0,0,0,0,0,0,0,0,0,0,0,0,0,0,0,0,0,0,0,0,-4.4286,-4.4287,0,-4.4326,-4.4326,-4.4327,-4.4288,-4.4286,-4.4285,-4.4283,-4.432,-4.4322,-4.4325,0,0,0,0,0,0,0,0,0,0,0,0,0,-4.4174,-4.4176,-4.4286,-4.4287,-4.4287,-4.4326,-4.4326,-4.4327,-4.4288,-4.4286,-4.4284,-4.4283,-4.4319,-4.4322,-4.4325,0,0,0,0,0,0,0,0,0,0,0,0,0,-4.4219,-4.4177,-4.4286,-4.4273,-4.4272,-4.4326,-4.4326,-4.4327,-4.4289,-4.4286,-4.4284,-4.4282,-4.4318,-4.4322,-4.4325,-4.4393,0,0,-4.4336,-4.4338,0,0,0,0,0,0,0,0,-4.4216,-4.4223,-4.4274,-4.4274,-4.4273,-4.43,-4.43,-4.4349,-4.4289,-4.4282,-4.4283,-4.4281,-4.4315,-4.4319,-4.4331,-4.4395,-4.4397,-4.4337,-4.4339,-4.434,-4.4341,0,0,0,0,0,0,0,-4.4213,-4.4221,-4.4302,-4.4275,-4.4274,-4.4263,-4.4267,-4.4309,-4.4311,-4.4283,-4.428,-4.4285,-4.4314,-4.4328,-4.4332,-4.4397,-4.4337,-4.434,-4.4342,-4.4343,-4.452,-4.4522,0,0,0,0,0,0,-4.4212,-4.4219,-4.43,-4.4303,-4.4238,-4.4267,-4.4272,-4.4293,-4.431,-4.4311,-4.4287,-4.4283,-4.4323,-4.4327,-4.4333,-4.4414,-4.434,-4.4344,-4.4346,-4.4517,-4.4521,-4.4523,0,0,0,0,0,0,-4.421,-4.422,-4.4299,-4.426,-4.4269,-4.4272,-4.4296,-4.4295,-4.4309,-4.4314,-4.4313,-4.4301,-4.4321,-4.4328,-4.4379,-4.4415,-4.4345,-4.4349,-4.4514,-4.4518,-4.4522,-4.4578,0,0,0,0,0,0,-4.4207,-4.4219,-4.4246,-4.4261,-4.4272,-4.4346,-4.4299,-4.4298,-4.4316,-4.4311,-4.4327,-4.4327,-4.432,-4.4374,-4.4383,-4.4419,-4.4351,-4.4511,-4.4516,-4.4521,-4.4573,-4.4583,-4.4592,0,0,0,0,0,-4.4203,-4.4259,-4.4247,-4.4257,-4.4305,-4.4348,-4.4354,-4.4346,-4.4319,-4.4345,-4.4348,-4.4326,-4.441,-4.438,-4.4389,-4.4427,-4.4509,-4.4515,-4.452,-4.4569,-4.4581,-4.4592,0,0,0,0,0,0,-4.4246,-4.426,-4.4248,-4.4311,-4.4329,-4.4341,-4.4374,-4.4359,-4.4384,-4.4378,-4.4365,-4.4369,-4.4424,-4.443,-4.4396,-4.4494,-4.4455,-4.4463,-4.4488,-4.45,-4.451,-4.4507,-4.4354,0,0,0,0,0,-4.4263,-4.4298,-4.4308,-4.4362,-4.4372,-4.4372,-4.439,-4.4382,-4.44,-4.4407,-4.4414,-4.4431,-4.446,-4.448,-4.4508,-4.4573,-4.4576,-4.4604,-4.4613,-4.4621,-4.4628,-4.4664,-4.4677,-4.4542,-4.4542,-4.4542,0,0,-4.4298,-4.431,-4.4333,-4.4371,-4.4384,-4.442,-4.4378,-4.4417,-4.4444,-4.4412,-4.4462,-4.4468,-4.4485,-4.4545,-4.4571,-4.4551,-4.4666,-4.4628,-4.4635,-4.4638,-4.4672,-4.4684,-4.4696,-4.4546,-4.4545,-4.4545,0,0,-4.438,-4.4393,-4.444,-4.4455,-4.4476,-4.4475,-4.4487,-4.4502,-4.4506,-4.4556,-4.4533,-4.4563,-4.4615,-4.4629,-4.4643,-4.4732,-4.4713,-4.4741,-4.4791,-4.4827,-4.4837,-4.4847,-4.4879,-4.4891,-4.4748,-4.4748,-4.4748,0,-4.4421,-4.4475,-4.4466,-4.4508,-4.4526,-4.4501,-4.4548,-4.4562,-4.459,-4.4603,-4.4581,-4.4646,-4.4656,-4.4719,-4.4741,-4.4752,-4.4765,-4.474,-4.4837,-4.4846,-4.4854,-4.4886,-4.4898,-4.4752,-4.4751,-4.4751,-4.4751,0,-4.4525,-4.4562,-4.4598,-4.4628,-4.465,-4.4694,-4.4691,-4.4714,-4.4704,-4.4706,-4.4758,-4.4769,-4.4799,-4.4813,-4.4803,-4.4875,-4.4862,-4.4839,-4.4799,-4.4871,-4.49,-4.4912,-4.4756,-4.4755,-4.4754,-4.4753,0,0,-4.4635,-4.4661,-4.4674,-4.4689,-4.471,-4.4739,-4.4782,-4.4813,-4.4833,-4.4853,-4.4889,-4.4934,-4.4913,-4.4928,-4.492,-4.4951,-4.5022,-4.4923,-4.4923,-4.4942,-4.5102,-4.5121,-4.5135,-4.5009,-4.5011,-4.5013,-4.5101,0,-4.4719,-4.4796,-4.479,-4.4862,-4.4898,-4.4874,-4.4912,-4.4929,-4.4932,-4.4961,-4.4963,-4.4996,-4.4965,-4.4974,-4.5004,-4.5007,-4.5054,-4.5,-4.5042,-4.5044,-4.504,-4.515,-4.517,-4.5252,-4.5113,-4.5114,-4.5116,0,-4.4828,-4.4855,-4.4931,-4.4949,-4.4963,-4.4997,-4.5026,-4.5054,-4.5073,-4.5073,-4.5091,-4.5078,-4.512,-4.508,-4.5138,-4.5102,-4.5119,-4.5123,-4.5126,-4.513,-4.5085,-4.5158,-4.5278,-4.5291,-4.5133,-4.5132,-4.5131,0,-4.4903,-4.4957,-4.501,-4.5023,-4.5044,-4.5069,-4.5079,-4.5095,-4.5115,-4.5139,-4.5152,-4.518,-4.5196,-4.5218,-4.5212,-4.5183,-4.5273,-4.5231,-4.5274,-4.5274,-4.5294,-4.5293,-4.542,-4.5303,-4.5303,-4.5303,-4.5303,0,-4.4998,-4.5046,-4.5045,-4.5078,-4.513,-4.5122,-4.5175,-4.5181,-4.5196,-4.5229,-4.521,-4.5241,-4.5231,-4.5261,-4.5257,-4.5307,-4.5313,-4.5314,-4.5313,-4.5317,-4.5317,-4.5328,-4.5323,-4.5306,-4.5305,-4.5305,-4.5304,0,-4.5091,-4.5092,-4.5149,-4.5165,-4.517,-4.5209,-4.5222,-4.5253,-4.5254,-4.5296,-4.5306,-4.5308,-4.5343,-4.5339,-4.5377,-4.5374,-4.5437,-4.5428,-4.5431,-4.543,-4.5473,-4.547,-4.5612,-4.5631,-4.5501,-4.5502,-4.5503,0,-4.5152,-4.5189,-4.521,-4.5232,-4.5244,-4.5279,-4.53,-4.5293,-4.5315,-4.5339,-4.5367,-4.54,-4.5427,-4.5484,-4.5488,-4.5518,-4.551,-4.5558,-4.5514,-4.5517,-4.5512,-4.551,-4.5514,-4.5566,-4.5568,-4.5569,-4.557,0,-4.5262,-4.5261,-4.5292,-4.5324,-4.535,-4.5374,-4.5396,-4.5414,-4.5409,-4.5435,-4.5472,-4.5492,-4.5533,-4.5566,-4.5595,-4.5603,-4.5586,-4.5584,-4.5595,-4.5601,-4.5602,-4.5603,-4.5456,-4.5581,-4.558,-4.5579,-4.5578,-4.5578,-4.5342,-4.5374,-4.5395,-4.543,-4.5446,-4.5468,-4.5498,-4.5504,-4.5535,-4.5569,-4.5562,-4.5603,-4.5621,-4.5658,-4.5669,-4.5701,-4.5683,-4.57,-4.5704,-4.5709,-4.5715,-4.5596,-4.5706,-4.5705,-4.5705,-4.5705,-4.5705,0,-4.5451,-4.5464,-4.5497,-4.5529,-4.5557,-4.554,-4.5564,-4.5588,-4.5625,-4.5644,-4.5671,-4.5714,-4.5746,-4.5754,-4.5785,-4.5809,-4.5802,-4.5817,-4.5816,-4.5818,-4.5728,-4.5715,-4.5823,-4.5823,-4.5823,-4.5823,-4.5823,-4.5822,-4.5512,-4.5566,-4.5568,-4.5629,-4.5641,-4.5683,-4.5698,-4.5717,-4.5733,-4.5782,-4.5809,-4.5814,-4.5829,-4.5861,-4.589,-4.5891,-4.5904,-4.5923,-4.5921,-4.5836,-4.5825,-4.5813,-4.5802,-4.5925,-4.5926,-4.6009,-4.601,-4.6011]}]]